Regional Weather Roundup
Issued by NWS

Home | Current Version | Previous Version | Text Only | Print | Product List | Glossary Off
Versions: 1 2 3 4 5 6 7 8 9 10 11 12 13 14 15 16 17 18 19 20 21 22 23 24 25 26 27 28 29 30 31 32 33 34 35 36 37 38 39 40 41 42 43 44 45 46 47 48 49 50

000
ASUS43 KDTX 300510
RWRMI
MICHIGAN HOURLY REGIONAL WEATHER ROUNDUP
NATIONAL WEATHER SERVICE DETROIT/PONTIAC MI
100 AM EDT FRI SEP 30 2016

NOTE: "FAIR" INDICATES FEW OR NO CLOUDS BELOW 12,000 FEET WITH NO
SIGNIFICANT WEATHER AND/OR OBSTRUCTION TO VISIBILITY.

MIZ047>049-052>055-059>063-066>070-074>076-081>083-300600-
SOUTHEAST LOWER MICHIGAN

CITY           SKY/WX    TMP DP  RH WIND       PRES   REMARKS
ADRIAN         LGT RAIN  60  60 100 NE14      30.14F
ALMA           CLOUDY    59  58  98 NE10G17   30.26F
ANN ARBOR      CLOUDY    59  59 100 NE12G22   30.16F
BAD AXE        CLOUDY    58  56  92 E10G17    30.29F
CARO           CLOUDY    58  58  97 E6        30.25F FOG
DETROIT CITY   LGT RAIN  59  59 100 E16G24    30.19F
DETROIT        CLOUDY    61  59  93 NE13      30.17F
FLINT          CLOUDY    59  58  96 E10       30.22F
GROSSE ILE     CLOUDY    62  60  93 NE8       30.15F
HILLSDALE      CLOUDY    59  55  88 NE8       30.14F FOG
HOWELL         CLOUDY    58  58  97 E13       30.20S FOG

CITY           SKY/WX    TMP DP  RH WIND       PRES   REMARKS
JACKSON        CLOUDY    59  59 100 NE10      30.17F
LAMBERTVILLE   LGT RAIN  65  61  88 E3        30.12F
LANSING        CLOUDY    58  56  93 NE10      30.22F FOG
LAPEER         CLOUDY    59  57  94 NE6       30.24F
MASON          CLOUDY    58  57  97 NE7       30.20S
MONROE         DRIZZLE   62  61  97 E10       30.13F
MT. CLEMENS    LGT RAIN  59  59 100 E18       30.19F
PONTIAC        LGT RAIN  58  56  93 E10       30.20F FOG
PORT HURON     LGT RAIN  59  57  94 E12       30.23F
TRI CITIES     CLOUDY    58  58 100 NE13      30.28F FOG
MIDLAND        CLOUDY    58  57  97 NE13      30.28S FOG
TROY           LGT RAIN  60  57  90 NE8       30.22F
SAGINAW HB     CLOUDY    57  55  94 NE9       30.25F FOG
$$
MIZ043>046-050>051-056>058-064>065-071>073-077>080-300600-
SOUTHWEST LOWER MICHIGAN

CITY           SKY/WX    TMP DP  RH WIND       PRES   REMARKS
BATTLE CREEK   CLOUDY    59  58  96 NE10      30.18F
BENTON HARBOR  CLOUDY    60  56  86 NE8       30.17F
BIG RAPIDS     LGT RAIN  59  58  95 NE5       30.28F
COLDWATER      RAIN      59  59  99 NE12      30.15F
FREMONT        CLOUDY    59  56  90 E9G16     30.26F
HOLLAND        CLOUDY    60  56  86 NE9       30.21F
GRAND RAPIDS   LGT RAIN  58  55  90 NE17      30.22F FOG
IONIA          DRIZZLE   57  56  95 NE12      30.22F
KALAMAZOO      CLOUDY    59  56  89 NE9       30.18F
LUDINGTON      CLOUDY    61  55  80 E7        30.29R
MARSHALL       CLOUDY    59  59  98 NE3       30.16F
MOUNT PLEASANT DRIZZLE   59  58  97 NE9       30.27F
MUSKEGON       MOCLDY    60  56  86 NE16G22   30.24F
SOUTH HAVEN    CLOUDY    60  58  94 NE12G17   30.19F
$$
MIZ016>042-300600-
NORTHERN LOWER MICHIGAN

CITY           SKY/WX    TMP DP  RH WIND       PRES   REMARKS
ALPENA         LGT RAIN  60  54  80 E10       30.37S
BEAVER ISLAND  PTCLDY    62  55  77 E9G16     30.38S
BELLAIRE       CLOUDY    61  53  73 NE5       30.35R
CADILLAC       CLOUDY    57  53  86 NE14G21   30.30F
CHARLEVOIX     CLOUDY    61  54  75 NE8       30.39S
FRANKFORT      PTCLDY    62  53  73 E9        30.32R
GAYLORD        CLOUDY    60  51  72 E10       30.36S
GRAYLING       CLOUDY    59  55  86 E13G20    30.34F
HARBOR SPRINGS CLOUDY    61  52  72 E10       30.36S
HOUGHTON LAKE  CLOUDY    56  55  97 NE10      30.32F FOG
MANISTEE       CLOUDY    62  54  74 E13       30.30R
OSCODA         CLOUDY    61  54  76 E14G20    30.32F
PELLSTON       CLOUDY    57  54  89 NE3       30.38F
ROGERS CITY    CLOUDY    62  55  78 E8G16     30.40R
TRAVERSE CITY  CLOUDY    63  53  70 NE8       30.32S
$$
MIZ007>008-015-300600-
EASTERN UPPER MICHIGAN

CITY           SKY/WX    TMP DP  RH WIND       PRES   REMARKS
KINROSS        CLEAR     55  50  83 NE7       30.41F
MACKINAC ISLAN MOCLDY    60  53  76 NE10G16   30.39S
NEWBERRY       CLEAR     54  50  88 NE6       30.41S
S. S. MARIE    CLEAR     57  49  74 NE6       30.41F
MUNISING         N/A     53  52  96 VRB5      30.40F
$$
MIZ004>006-011>014-085-300600-
CENTRAL UPPER MICHIGAN

CITY           SKY/WX    TMP DP  RH WIND       PRES   REMARKS
MANISTIQUE     CLEAR     52  50  92 N7        30.39S
ESCANABA       CLOUDY    55  54  96 N6        30.39F
MENOMINEE      CLEAR     55  52  89 N8        30.37F
SAWYER-GWINN   CLEAR     53  51  95 N9        30.42F
$$
MIZ001>003-009>011-084-300600-
WESTERN UPPER MICHIGAN

CITY           SKY/WX    TMP DP  RH WIND       PRES   REMARKS
IRON MOUNTAIN  CLEAR     51  48  89 W6        30.41F
HOUGHTON       CLEAR     44  42  93 CALM      30.45F
COPPER HARBOR    N/A     53  52  96 CALM      30.45F
IRONWOOD       CLOUDY    52  51  97 NE6       30.46S
$$

ABBREVIATIONS USED IN REMARKS
   TC - TEMPERATURE IN CELSIUS
  WCI - WIND CHILL INDEX
   HX - HEAT INDEX
  VSB - VISIBILITY





USA.gov is the U.S. government's official web portal to all federal, state and local government web resources and services.